Year,Month,Day,Hour,Minute,Value (Times are PST for temperature in C)
2009,08,23,00,00,12.50
2009,08,23,00,01,12.50
2009,08,23,00,02,12.50
2009,08,23,00,03,12.50
2009,08,23,00,04,12.50
2009,08,23,00,05,12.50
2009,08,23,00,06,12.50
2009,08,23,00,07,12.40
2009,08,23,00,08,12.40
2009,08,23,00,09,12.40
2009,08,23,00,10,12.40
2009,08,23,00,11,12.40
2009,08,23,00,12,12.40
2009,08,23,00,13,12.40
2009,08,23,00,14,12.40
2009,08,23,00,15,12.30
2009,08,23,00,16,12.30
2009,08,23,00,17,12.30
2009,08,23,00,18,12.30
2009,08,23,00,19,12.30
2009,08,23,00,20,12.30
2009,08,23,00,21,12.30
2009,08,23,00,22,12.30
2009,08,23,00,23,12.30
2009,08,23,00,24,12.30
2009,08,23,00,25,12.30
2009,08,23,00,26,12.30
2009,08,23,00,27,12.30
2009,08,23,00,28,12.30
2009,08,23,00,29,12.30
2009,08,23,00,30,12.30
2009,08,23,00,31,12.30
2009,08,23,00,32,12.30
2009,08,23,00,33,12.30
2009,08,23,00,34,12.30
2009,08,23,00,35,12.30
2009,08,23,00,36,12.30
2009,08,23,00,37,12.30
2009,08,23,00,38,12.30
2009,08,23,00,39,12.30
2009,08,23,00,40,12.30
2009,08,23,00,41,12.30
2009,08,23,00,42,12.30
2009,08,23,00,43,12.30
2009,08,23,00,44,12.30
2009,08,23,00,45,12.30
2009,08,23,00,46,12.30
2009,08,23,00,47,12.30
2009,08,23,00,48,12.20
2009,08,23,00,49,12.20
2009,08,23,00,50,12.20
2009,08,23,00,51,12.20
2009,08,23,00,52,12.20
2009,08,23,00,53,12.10
2009,08,23,00,54,12.10
2009,08,23,00,55,12.10
2009,08,23,00,56,12.10
2009,08,23,00,57,12.10
2009,08,23,00,58,12.10
2009,08,23,00,59,12.10
2009,08,23,01,00,12.00
2009,08,23,01,01,12.00
2009,08,23,01,02,12.00
2009,08,23,01,03,12.00
2009,08,23,01,04,12.00
2009,08,23,01,05,12.00
2009,08,23,01,06,12.00
2009,08,23,01,07,12.00
2009,08,23,01,08,12.00
2009,08,23,01,09,12.00
2009,08,23,01,10,12.00
2009,08,23,01,11,12.00
2009,08,23,01,12,12.00
2009,08,23,01,13,12.00
2009,08,23,01,14,12.00
2009,08,23,01,15,12.00
2009,08,23,01,16,12.00
2009,08,23,01,17,12.00
2009,08,23,01,18,12.00
2009,08,23,01,19,12.00
2009,08,23,01,20,12.00
2009,08,23,01,21,12.00
2009,08,23,01,22,12.00
2009,08,23,01,23,12.00
2009,08,23,01,24,12.00
2009,08,23,01,25,12.00
2009,08,23,01,26,12.00
2009,08,23,01,27,12.00
2009,08,23,01,28,12.00
2009,08,23,01,29,12.00
2009,08,23,01,30,12.00
2009,08,23,01,31,12.00
2009,08,23,01,32,12.00
2009,08,23,01,33,12.00
2009,08,23,01,34,12.00
2009,08,23,01,35,12.00
2009,08,23,01,36,12.00
2009,08,23,01,37,12.00
2009,08,23,01,38,12.00
2009,08,23,01,39,12.00
2009,08,23,01,40,12.00
2009,08,23,01,41,12.00
2009,08,23,01,42,11.90
2009,08,23,01,43,11.90
2009,08,23,01,44,11.90
2009,08,23,01,45,11.80
2009,08,23,01,46,11.80
2009,08,23,01,47,11.80
2009,08,23,01,48,11.80
2009,08,23,01,49,11.80
2009,08,23,01,50,11.80
2009,08,23,01,51,11.80
2009,08,23,01,52,11.70
2009,08,23,01,53,11.70
2009,08,23,01,54,11.70
2009,08,23,01,55,11.70
2009,08,23,01,56,11.60
2009,08,23,01,57,11.60
2009,08,23,01,58,11.60
2009,08,23,01,59,11.60
2009,08,23,02,00,11.50
2009,08,23,02,01,11.40
2009,08,23,02,02,11.40
2009,08,23,02,03,11.40
2009,08,23,02,04,11.40
2009,08,23,02,05,11.40
2009,08,23,02,06,11.40
2009,08,23,02,07,11.30
2009,08,23,02,08,11.30
2009,08,23,02,09,11.30
2009,08,23,02,10,11.20
2009,08,23,02,11,11.20
2009,08,23,02,12,11.20
2009,08,23,02,13,11.10
2009,08,23,02,14,11.10
2009,08,23,02,15,11.10
2009,08,23,02,16,11.10
2009,08,23,02,17,11.10
2009,08,23,02,18,10.90
2009,08,23,02,19,10.90
2009,08,23,02,20,10.90
2009,08,23,02,21,10.90
2009,08,23,02,22,10.90
2009,08,23,02,23,10.90
2009,08,23,02,24,10.80
2009,08,23,02,25,10.80
2009,08,23,02,26,10.80
2009,08,23,02,27,10.80
2009,08,23,02,28,10.70
2009,08,23,02,29,10.70
2009,08,23,02,30,10.70
2009,08,23,02,31,10.70
2009,08,23,02,32,10.60
2009,08,23,02,33,10.60
2009,08,23,02,34,10.60
2009,08,23,02,35,10.60
2009,08,23,02,36,10.40
2009,08,23,02,37,10.40
2009,08,23,02,38,10.40
2009,08,23,02,39,10.30
2009,08,23,02,40,10.30
2009,08,23,02,41,10.20
2009,08,23,02,42,10.20
2009,08,23,02,43,10.20
2009,08,23,02,44,10.20
2009,08,23,02,45,10.20
2009,08,23,02,46,10.20
2009,08,23,02,47,10.20
2009,08,23,02,48,10.20
2009,08,23,02,49,10.20
2009,08,23,02,50,10.30
2009,08,23,02,51,10.30
2009,08,23,02,52,10.30
2009,08,23,02,53,10.30
2009,08,23,02,54,10.40
2009,08,23,02,55,10.50
2009,08,23,02,56,10.60
2009,08,23,02,57,10.60
2009,08,23,02,58,10.60
2009,08,23,02,59,10.70
2009,08,23,03,00,10.70
2009,08,23,03,01,10.70
2009,08,23,03,02,10.70
2009,08,23,03,03,10.80
2009,08,23,03,04,10.90
2009,08,23,03,05,10.90
2009,08,23,03,06,11.00
2009,08,23,03,07,11.10
2009,08,23,03,08,11.10
2009,08,23,03,09,11.10
2009,08,23,03,10,11.20
2009,08,23,03,11,11.20
2009,08,23,03,12,11.20
2009,08,23,03,13,11.20
2009,08,23,03,14,11.20
2009,08,23,03,15,11.30
2009,08,23,03,16,11.30
2009,08,23,03,17,11.30
2009,08,23,03,18,11.30
2009,08,23,03,19,11.20
2009,08,23,03,20,11.20
2009,08,23,03,21,11.00
2009,08,23,03,22,10.90
2009,08,23,03,23,10.80
2009,08,23,03,24,10.80
2009,08,23,03,25,10.70
2009,08,23,03,26,10.70
2009,08,23,03,27,10.70
2009,08,23,03,28,10.70
2009,08,23,03,29,10.70
2009,08,23,03,30,10.70
2009,08,23,03,31,10.70
2009,08,23,03,32,10.80
2009,08,23,03,33,10.80
2009,08,23,03,34,10.90
2009,08,23,03,35,11.10
2009,08,23,03,36,11.10
2009,08,23,03,37,11.10
2009,08,23,03,38,11.10
2009,08,23,03,39,11.10
2009,08,23,03,40,11.00
2009,08,23,03,41,11.00
2009,08,23,03,42,11.10
2009,08,23,03,43,11.10
2009,08,23,03,44,11.10
2009,08,23,03,45,11.20
2009,08,23,03,46,11.20
2009,08,23,03,47,11.20
2009,08,23,03,48,11.30
2009,08,23,03,49,11.30
2009,08,23,03,50,11.40
2009,08,23,03,51,11.50
2009,08,23,03,52,11.60
2009,08,23,03,53,11.60
2009,08,23,03,54,11.60
2009,08,23,03,55,11.60
2009,08,23,03,56,11.60
2009,08,23,03,57,11.60
2009,08,23,03,58,11.70
2009,08,23,03,59,11.80
2009,08,23,04,00,11.80
2009,08,23,04,01,11.80
2009,08,23,04,02,11.80
2009,08,23,04,03,11.80
2009,08,23,04,05,11.80
2009,08,23,04,06,11.80
2009,08,23,04,07,11.80
2009,08,23,04,08,11.80
2009,08,23,04,09,11.80
2009,08,23,04,10,11.80
2009,08,23,04,11,11.80
2009,08,23,04,12,11.80
2009,08,23,04,13,11.80
2009,08,23,04,14,11.80
2009,08,23,04,15,11.80
2009,08,23,04,16,11.80
2009,08,23,04,17,11.80
2009,08,23,04,18,11.80
2009,08,23,04,19,11.90
2009,08,23,04,20,11.90
2009,08,23,04,21,11.90
2009,08,23,04,22,11.90
2009,08,23,04,23,11.90
2009,08,23,04,24,11.90
2009,08,23,04,25,11.90
2009,08,23,04,26,11.90
2009,08,23,04,27,11.90
2009,08,23,04,28,11.90
2009,08,23,04,29,11.90
2009,08,23,04,30,12.00
2009,08,23,04,31,12.00
2009,08,23,04,32,12.00
2009,08,23,04,33,12.00
2009,08,23,04,34,12.00
2009,08,23,04,35,12.00
2009,08,23,04,36,12.00
2009,08,23,04,37,12.00
2009,08,23,04,38,12.00
2009,08,23,04,39,12.00
2009,08,23,04,40,12.10
2009,08,23,04,41,12.10
2009,08,23,04,42,12.10
2009,08,23,04,43,12.10
2009,08,23,04,44,12.10
2009,08,23,04,45,12.10
2009,08,23,04,46,12.10
2009,08,23,04,47,12.10
2009,08,23,04,48,12.10
2009,08,23,04,49,12.20
2009,08,23,04,50,12.20
2009,08,23,04,51,12.20
2009,08,23,04,52,12.20
2009,08,23,04,53,12.20
2009,08,23,04,54,12.20
2009,08,23,04,55,12.20
2009,08,23,04,56,12.20
2009,08,23,04,57,12.20
2009,08,23,04,58,12.20
2009,08,23,04,59,12.20
2009,08,23,05,00,12.20
2009,08,23,05,01,12.20
2009,08,23,05,02,12.20
2009,08,23,05,03,12.20
2009,08,23,05,04,12.20
2009,08,23,05,05,12.20
2009,08,23,05,06,12.20
2009,08,23,05,07,12.20
2009,08,23,05,08,12.20
2009,08,23,05,09,12.20
2009,08,23,05,10,12.20
2009,08,23,05,11,12.10
2009,08,23,05,12,12.10
2009,08,23,05,13,12.10
2009,08,23,05,14,12.10
2009,08,23,05,15,12.10
2009,08,23,05,16,12.00
2009,08,23,05,17,12.00
2009,08,23,05,18,12.00
2009,08,23,05,19,12.00
2009,08,23,05,20,12.00
2009,08,23,05,21,12.00
2009,08,23,05,22,12.00
2009,08,23,05,23,12.00
2009,08,23,05,24,12.00
2009,08,23,05,25,12.00
2009,08,23,05,26,12.00
2009,08,23,05,27,12.00
2009,08,23,05,28,12.00
2009,08,23,05,29,12.00
2009,08,23,05,30,12.00
2009,08,23,05,31,12.00
2009,08,23,05,32,12.00
2009,08,23,05,33,12.00
2009,08,23,05,34,12.00
2009,08,23,05,35,12.00
2009,08,23,05,36,12.00
2009,08,23,05,37,12.00
2009,08,23,05,38,12.00
2009,08,23,05,39,12.00
2009,08,23,05,40,12.00
2009,08,23,05,41,12.00
2009,08,23,05,42,12.00
2009,08,23,05,43,12.00
2009,08,23,05,44,12.00
2009,08,23,05,45,12.00
2009,08,23,05,46,12.00
2009,08,23,05,47,12.00
2009,08,23,05,48,12.00
2009,08,23,05,49,12.00
2009,08,23,05,50,12.00
2009,08,23,05,51,12.00
2009,08,23,05,52,12.00
2009,08,23,05,53,12.00
2009,08,23,05,54,12.00
2009,08,23,05,55,12.00
2009,08,23,05,56,11.90
2009,08,23,05,57,11.90
2009,08,23,05,58,11.90
2009,08,23,05,59,11.90
2009,08,23,06,00,11.90
2009,08,23,06,01,11.90
2009,08,23,06,02,11.90
2009,08,23,06,03,11.90
2009,08,23,06,04,11.90
2009,08,23,06,05,11.90
2009,08,23,06,06,11.90
2009,08,23,06,07,11.90
2009,08,23,06,08,11.90
2009,08,23,06,09,11.90
2009,08,23,06,10,11.90
2009,08,23,06,11,11.90
2009,08,23,06,12,11.90
2009,08,23,06,13,11.90
2009,08,23,06,14,11.90
2009,08,23,06,15,11.90
2009,08,23,06,16,11.90
2009,08,23,06,17,11.90
2009,08,23,06,18,11.90
2009,08,23,06,19,11.90
2009,08,23,06,20,11.90
2009,08,23,06,21,11.90
2009,08,23,06,22,11.90
2009,08,23,06,23,11.90
2009,08,23,06,24,11.90
2009,08,23,06,25,11.80
2009,08,23,06,26,11.80
2009,08,23,06,27,11.80
2009,08,23,06,28,11.80
2009,08,23,06,29,11.80
2009,08,23,06,30,11.80
2009,08,23,06,31,11.80
2009,08,23,06,32,11.80
2009,08,23,06,33,11.80
2009,08,23,06,34,11.80
2009,08,23,06,35,11.80
2009,08,23,06,36,11.80
2009,08,23,06,37,11.80
2009,08,23,06,38,11.80
2009,08,23,06,39,11.70
2009,08,23,06,40,11.70
2009,08,23,06,41,11.60
2009,08,23,06,42,11.60
2009,08,23,06,43,11.60
2009,08,23,06,44,11.60
2009,08,23,06,45,11.60
2009,08,23,06,46,11.50
2009,08,23,06,47,11.40
2009,08,23,06,48,11.40
2009,08,23,06,49,11.40
2009,08,23,06,50,11.40
2009,08,23,06,51,11.40
2009,08,23,06,52,11.40
2009,08,23,06,53,11.40
2009,08,23,06,54,11.40
2009,08,23,06,55,11.40
2009,08,23,06,56,11.40
2009,08,23,06,57,11.40
2009,08,23,06,58,11.40
2009,08,23,06,59,11.40
2009,08,23,07,00,11.40
2009,08,23,07,01,11.40
2009,08,23,07,02,11.40
2009,08,23,07,03,11.40
2009,08,23,07,04,11.40
2009,08,23,07,05,11.40
2009,08,23,07,06,11.40
2009,08,23,07,07,11.40
2009,08,23,07,08,11.40
2009,08,23,07,09,11.50
2009,08,23,07,10,11.60
2009,08,23,07,11,11.60
2009,08,23,07,12,11.60
2009,08,23,07,13,11.60
2009,08,23,07,14,11.60
2009,08,23,07,15,11.60
2009,08,23,07,16,11.70
2009,08,23,07,17,11.70
2009,08,23,07,18,11.70
2009,08,23,07,19,11.80
2009,08,23,07,20,11.80
2009,08,23,07,21,11.80
2009,08,23,07,22,11.80
2009,08,23,07,23,11.80
2009,08,23,07,24,11.80
2009,08,23,07,25,11.90
2009,08,23,07,26,11.90
2009,08,23,07,27,12.00
2009,08,23,07,28,12.00
2009,08,23,07,29,12.10
2009,08,23,07,30,12.10
2009,08,23,07,31,12.10
2009,08,23,07,32,12.20
2009,08,23,07,33,12.30
2009,08,23,07,34,12.30
2009,08,23,07,35,12.30
2009,08,23,07,36,12.30
2009,08,23,07,37,12.40
2009,08,23,07,38,12.40
2009,08,23,07,39,12.40
2009,08,23,07,40,12.50
2009,08,23,07,41,12.50
2009,08,23,07,42,12.50
2009,08,23,07,43,12.50
2009,08,23,07,44,12.60
2009,08,23,07,45,12.60
2009,08,23,07,46,12.60
2009,08,23,07,47,12.60
2009,08,23,07,48,12.60
2009,08,23,07,49,12.70
2009,08,23,07,50,12.70
2009,08,23,07,51,12.70
2009,08,23,07,52,12.70
2009,08,23,07,53,12.80
2009,08,23,07,54,12.80
2009,08,23,07,55,12.80
2009,08,23,07,56,12.80
2009,08,23,07,57,12.80
2009,08,23,07,58,12.80
2009,08,23,07,59,12.80
2009,08,23,08,00,12.80
2009,08,23,08,01,12.80
2009,08,23,08,02,12.90
2009,08,23,08,03,12.90
2009,08,23,08,04,12.90
2009,08,23,08,05,12.90
2009,08,23,08,06,12.90
2009,08,23,08,07,12.90
2009,08,23,08,08,13.00
2009,08,23,08,09,13.00
2009,08,23,08,10,13.10
2009,08,23,08,11,13.10
2009,08,23,08,12,13.10
2009,08,23,08,13,13.10
2009,08,23,08,14,13.10
2009,08,23,08,15,13.10
2009,08,23,08,16,13.10
2009,08,23,08,17,13.10
2009,08,23,08,18,13.10
2009,08,23,08,19,13.20
2009,08,23,08,20,13.20
2009,08,23,08,21,13.20
2009,08,23,08,22,13.20
2009,08,23,08,23,13.20
2009,08,23,08,24,13.20
2009,08,23,08,25,13.20
2009,08,23,08,26,13.20
2009,08,23,08,27,13.20
2009,08,23,08,28,13.30
2009,08,23,08,29,13.30
2009,08,23,08,30,13.30
2009,08,23,08,31,13.30
2009,08,23,08,32,13.30
2009,08,23,08,33,13.30
2009,08,23,08,34,13.30
2009,08,23,08,35,13.30
2009,08,23,08,36,13.30
2009,08,23,08,37,13.30
2009,08,23,08,38,13.30
2009,08,23,08,39,13.30
2009,08,23,08,40,13.30
2009,08,23,08,41,13.30
2009,08,23,08,42,13.30
2009,08,23,08,43,13.30
2009,08,23,08,44,13.30
2009,08,23,08,45,13.40
2009,08,23,08,46,13.40
2009,08,23,08,47,13.40
2009,08,23,08,48,13.40
2009,08,23,08,49,13.40
2009,08,23,08,50,13.40
2009,08,23,08,51,13.40
2009,08,23,08,52,13.50
2009,08,23,08,53,13.50
2009,08,23,08,54,13.50
2009,08,23,08,55,13.50
2009,08,23,08,56,13.50
2009,08,23,08,57,13.40
2009,08,23,08,58,13.50
2009,08,23,08,59,13.50
2009,08,23,09,00,13.50
2009,08,23,09,01,13.50
2009,08,23,09,02,13.50
2009,08,23,09,03,13.50
2009,08,23,09,04,13.50
2009,08,23,09,05,13.50
2009,08,23,09,06,13.50
2009,08,23,09,07,13.50
2009,08,23,09,08,13.50
2009,08,23,09,09,13.50
2009,08,23,09,10,13.50
2009,08,23,09,11,13.50
2009,08,23,09,12,13.50
2009,08,23,09,13,13.50
2009,08,23,09,14,13.60
2009,08,23,09,15,13.60
2009,08,23,09,16,13.60
2009,08,23,09,17,13.60
2009,08,23,09,18,13.70
2009,08,23,09,19,13.60
2009,08,23,09,20,13.60
2009,08,23,09,21,13.60
2009,08,23,09,22,13.60
2009,08,23,09,23,13.50
2009,08,23,09,24,13.50
2009,08,23,09,25,13.50
2009,08,23,09,26,13.60
2009,08,23,09,27,13.60
2009,08,23,09,28,13.60
2009,08,23,09,29,13.60
2009,08,23,09,30,13.60
2009,08,23,09,31,13.60
2009,08,23,09,32,13.70
2009,08,23,09,33,13.70
2009,08,23,09,34,13.70
2009,08,23,09,35,13.80
2009,08,23,09,36,13.90
2009,08,23,09,37,13.90
2009,08,23,09,38,14.00
2009,08,23,09,39,14.10
2009,08,23,09,40,14.10
2009,08,23,09,41,14.10
2009,08,23,09,42,14.10
2009,08,23,09,43,14.20
2009,08,23,09,44,14.20
2009,08,23,09,45,14.30
2009,08,23,09,46,14.30
2009,08,23,09,47,14.40
2009,08,23,09,48,14.30
2009,08,23,09,49,14.30
2009,08,23,09,50,14.30
2009,08,23,09,51,14.40
2009,08,23,09,52,14.30
2009,08,23,09,53,14.30
2009,08,23,09,54,14.40
2009,08,23,09,55,14.40
2009,08,23,09,56,14.50
2009,08,23,09,57,14.60
2009,08,23,09,58,14.70
2009,08,23,09,59,14.70
2009,08,23,10,00,14.70
2009,08,23,10,01,14.70
2009,08,23,10,02,14.70
2009,08,23,10,03,14.70
2009,08,23,10,04,14.70
2009,08,23,10,05,14.60
2009,08,23,10,06,14.50
2009,08,23,10,07,14.50
2009,08,23,10,08,14.50
2009,08,23,10,09,14.50
2009,08,23,10,10,14.40
2009,08,23,10,11,14.50
2009,08,23,10,12,14.60
2009,08,23,10,13,14.80
2009,08,23,10,14,14.90
2009,08,23,10,15,15.00
2009,08,23,10,16,15.00
2009,08,23,10,17,15.20
2009,08,23,10,18,15.20
2009,08,23,10,19,15.20
2009,08,23,10,20,15.20
2009,08,23,10,21,15.20
2009,08,23,10,22,15.30
2009,08,23,10,23,15.30
2009,08,23,10,24,15.30
2009,08,23,10,25,15.40
2009,08,23,10,26,15.40
2009,08,23,10,27,15.40
2009,08,23,10,28,15.50
2009,08,23,10,29,15.50
2009,08,23,10,30,15.60
2009,08,23,10,31,15.60
2009,08,23,10,32,15.70
2009,08,23,10,33,15.70
2009,08,23,10,34,15.80
2009,08,23,10,35,15.80
2009,08,23,10,36,15.80
2009,08,23,10,37,15.80
2009,08,23,10,38,15.80
2009,08,23,10,39,15.80
2009,08,23,10,40,15.80
2009,08,23,10,41,15.80
2009,08,23,10,42,15.70
2009,08,23,10,43,15.70
2009,08,23,10,44,15.80
2009,08,23,10,45,15.80
2009,08,23,10,46,15.80
2009,08,23,10,47,15.80
2009,08,23,10,48,15.80
2009,08,23,10,49,15.80
2009,08,23,10,50,15.80
2009,08,23,10,51,15.70
2009,08,23,10,52,15.60
2009,08,23,10,53,15.50
2009,08,23,10,54,15.50
2009,08,23,10,55,15.40
2009,08,23,10,56,15.40
2009,08,23,10,57,15.50
2009,08,23,10,58,15.70
2009,08,23,10,59,15.80
2009,08,23,11,00,15.90
2009,08,23,11,01,15.90
2009,08,23,11,02,15.90
2009,08,23,11,03,15.80
2009,08,23,11,04,15.80
2009,08,23,11,05,15.80
2009,08,23,11,06,15.80
2009,08,23,11,07,15.80
2009,08,23,11,08,15.70
2009,08,23,11,09,15.60
2009,08,23,11,10,15.50
2009,08,23,11,11,15.50
2009,08,23,11,12,15.50
2009,08,23,11,13,15.60
2009,08,23,11,14,15.60
2009,08,23,11,15,15.60
2009,08,23,11,16,15.70
2009,08,23,11,17,15.80
2009,08,23,11,18,15.80
2009,08,23,11,19,15.90
2009,08,23,11,20,16.00
2009,08,23,11,21,16.10
2009,08,23,11,22,16.20
2009,08,23,11,23,16.20
2009,08,23,11,24,16.20
2009,08,23,11,25,16.20
2009,08,23,11,26,16.10
2009,08,23,11,27,16.10
2009,08,23,11,28,16.10
2009,08,23,11,29,16.20
2009,08,23,11,30,16.20
2009,08,23,11,31,16.20
2009,08,23,11,32,16.20
2009,08,23,11,33,16.20
2009,08,23,11,34,16.20
2009,08,23,11,35,16.20
2009,08,23,11,36,16.20
2009,08,23,11,37,16.30
2009,08,23,11,38,16.40
2009,08,23,11,39,16.40
2009,08,23,11,40,16.50
2009,08,23,11,41,16.60
2009,08,23,11,42,16.70
2009,08,23,11,43,16.70
2009,08,23,11,44,16.60
2009,08,23,11,45,16.60
2009,08,23,11,46,16.50
2009,08,23,11,47,16.60
2009,08,23,11,48,16.70
2009,08,23,11,49,16.60
2009,08,23,11,50,16.70
2009,08,23,11,51,16.70
2009,08,23,11,52,16.90
2009,08,23,11,53,17.10
2009,08,23,11,54,16.90
2009,08,23,11,55,16.80
2009,08,23,11,56,16.90
2009,08,23,11,57,16.90
2009,08,23,11,58,16.90
2009,08,23,11,59,17.00
2009,08,23,12,00,17.00
2009,08,23,12,01,17.00
2009,08,23,12,02,17.00
2009,08,23,12,03,17.00
2009,08,23,12,04,17.00
2009,08,23,12,05,16.90
2009,08,23,12,06,16.90
2009,08,23,12,07,17.00
2009,08,23,12,08,17.20
2009,08,23,12,09,17.30
2009,08,23,12,10,17.30
2009,08,23,12,11,17.40
2009,08,23,12,12,17.50
2009,08,23,12,13,17.60
2009,08,23,12,14,17.60
2009,08,23,12,15,17.50
2009,08,23,12,16,17.50
2009,08,23,12,17,17.50
2009,08,23,12,18,17.40
2009,08,23,12,19,17.40
2009,08,23,12,20,17.50
2009,08,23,12,21,17.60
2009,08,23,12,22,17.70
2009,08,23,12,23,17.80
2009,08,23,12,24,17.80
2009,08,23,12,25,17.80
2009,08,23,12,26,17.80
2009,08,23,12,27,17.80
2009,08,23,12,28,17.70
2009,08,23,12,29,17.70
2009,08,23,12,30,17.60
2009,08,23,12,31,17.70
2009,08,23,12,32,17.80
2009,08,23,12,33,17.80
2009,08,23,12,34,17.90
2009,08,23,12,35,17.90
2009,08,23,12,36,17.90
2009,08,23,12,37,17.90
2009,08,23,12,38,17.90
2009,08,23,12,39,17.90
2009,08,23,12,40,17.80
2009,08,23,12,41,17.70
2009,08,23,12,42,17.70
2009,08,23,12,43,17.70
2009,08,23,12,44,17.70
2009,08,23,12,45,17.70
2009,08,23,12,46,17.70
2009,08,23,12,47,17.70
2009,08,23,12,48,17.70
2009,08,23,12,49,17.80
2009,08,23,12,50,17.80
2009,08,23,12,51,17.80
2009,08,23,12,52,17.80
2009,08,23,12,53,17.80
2009,08,23,12,54,17.70
2009,08,23,12,55,17.70
2009,08,23,12,56,17.60
2009,08,23,12,57,17.60
2009,08,23,12,58,17.60
2009,08,23,12,59,17.60
2009,08,23,13,00,17.70
2009,08,23,13,01,17.80
2009,08,23,13,02,17.80
2009,08,23,13,03,17.80
2009,08,23,13,04,17.90
2009,08,23,13,05,17.90
2009,08,23,13,06,17.90
2009,08,23,13,07,17.90
2009,08,23,13,08,17.90
2009,08,23,13,09,17.90
2009,08,23,13,10,17.90
2009,08,23,13,11,17.90
2009,08,23,13,12,17.90
2009,08,23,13,13,17.90
2009,08,23,13,14,17.90
2009,08,23,13,15,17.80
2009,08,23,13,16,17.80
2009,08,23,13,17,17.90
2009,08,23,13,18,17.90
2009,08,23,13,19,18.00
2009,08,23,13,20,18.20
2009,08,23,13,21,18.30
2009,08,23,13,22,18.40
2009,08,23,13,23,18.40
2009,08,23,13,24,18.30
2009,08,23,13,25,18.20
2009,08,23,13,26,18.20
2009,08,23,13,27,18.20
2009,08,23,13,28,18.30
2009,08,23,13,29,18.30
2009,08,23,13,30,18.40
2009,08,23,13,31,18.40
2009,08,23,13,32,18.40
2009,08,23,13,33,18.50
2009,08,23,13,34,18.40
2009,08,23,13,35,18.40
2009,08,23,13,36,18.50
2009,08,23,13,37,18.50
2009,08,23,13,38,18.50
2009,08,23,13,39,18.50
2009,08,23,13,40,18.60
2009,08,23,13,41,18.60
2009,08,23,13,42,18.60
2009,08,23,13,43,18.60
2009,08,23,13,44,18.60
2009,08,23,13,45,18.60
2009,08,23,13,46,18.50
2009,08,23,13,47,18.50
2009,08,23,13,48,18.40
2009,08,23,13,49,18.40
2009,08,23,13,50,18.40
2009,08,23,13,51,18.50
2009,08,23,13,52,18.60
2009,08,23,13,53,18.60
2009,08,23,13,54,18.50
2009,08,23,13,55,18.50
2009,08,23,13,56,18.50
2009,08,23,13,57,18.60
2009,08,23,13,58,18.70
2009,08,23,13,59,18.70
2009,08,23,14,00,18.70
2009,08,23,14,01,18.80
2009,08,23,14,02,18.70
2009,08,23,14,03,18.70
2009,08,23,14,04,18.80
2009,08,23,14,05,18.70
2009,08,23,14,06,18.70
2009,08,23,14,07,18.80
2009,08,23,14,08,18.90
2009,08,23,14,09,18.90
2009,08,23,14,10,18.90
2009,08,23,14,11,19.00
2009,08,23,14,12,19.10
2009,08,23,14,13,19.10
2009,08,23,14,14,19.10
2009,08,23,14,15,19.10
2009,08,23,14,16,18.90
2009,08,23,14,17,18.90
2009,08,23,14,18,18.90
2009,08,23,14,19,19.10
2009,08,23,14,20,19.00
2009,08,23,14,21,18.90
2009,08,23,14,22,18.90
2009,08,23,14,23,18.80
2009,08,23,14,24,18.80
2009,08,23,14,25,18.80
2009,08,23,14,26,18.70
2009,08,23,14,27,18.80
2009,08,23,14,28,18.80
2009,08,23,14,29,18.90
2009,08,23,14,30,19.00
2009,08,23,14,31,19.10
2009,08,23,14,32,19.20
2009,08,23,14,33,19.10
2009,08,23,14,34,19.00
2009,08,23,14,35,18.90
2009,08,23,14,36,18.90
2009,08,23,14,37,18.90
2009,08,23,14,38,18.90
2009,08,23,14,39,18.80
2009,08,23,14,40,18.70
2009,08,23,14,41,18.70
2009,08,23,14,42,18.80
2009,08,23,14,43,18.90
2009,08,23,14,44,19.10
2009,08,23,14,45,19.20
2009,08,23,14,46,19.20
2009,08,23,14,47,19.10
2009,08,23,14,48,19.00
2009,08,23,14,49,19.10
2009,08,23,14,50,19.00
2009,08,23,14,51,18.90
2009,08,23,14,52,18.90
2009,08,23,14,53,19.00
2009,08,23,14,54,18.90
2009,08,23,14,55,18.90
2009,08,23,14,56,19.00
2009,08,23,14,57,19.00
2009,08,23,14,58,18.90
2009,08,23,14,59,18.90
2009,08,23,15,00,18.90
2009,08,23,15,01,18.90
2009,08,23,15,02,18.80
2009,08,23,15,03,18.90
2009,08,23,15,04,19.10
2009,08,23,15,05,19.30
2009,08,23,15,06,19.40
2009,08,23,15,07,19.50
2009,08,23,15,08,19.40
2009,08,23,15,09,19.50
2009,08,23,15,10,19.50
2009,08,23,15,11,19.60
2009,08,23,15,12,19.60
2009,08,23,15,13,19.60
2009,08,23,15,14,19.50
2009,08,23,15,15,19.50
2009,08,23,15,16,19.60
2009,08,23,15,17,19.60
2009,08,23,15,18,19.60
2009,08,23,15,19,19.60
2009,08,23,15,20,19.60
2009,08,23,15,21,19.60
2009,08,23,15,22,19.50
2009,08,23,15,23,19.40
2009,08,23,15,24,19.40
2009,08,23,15,25,19.30
2009,08,23,15,26,19.20
2009,08,23,15,27,19.20
2009,08,23,15,28,19.10
2009,08,23,15,29,19.30
2009,08,23,15,30,19.40
2009,08,23,15,31,19.40
2009,08,23,15,32,19.40
2009,08,23,15,33,19.50
2009,08,23,15,34,19.60
2009,08,23,15,35,19.70
2009,08,23,15,36,19.60
2009,08,23,15,37,19.40
2009,08,23,15,38,19.40
2009,08,23,15,39,19.40
2009,08,23,15,40,19.40
2009,08,23,15,41,19.50
2009,08,23,15,42,19.60
2009,08,23,15,43,19.50
2009,08,23,15,44,19.50
2009,08,23,15,45,19.50
2009,08,23,15,46,19.50
2009,08,23,15,47,19.50
2009,08,23,15,48,19.50
2009,08,23,15,49,19.50
2009,08,23,15,50,19.40
2009,08,23,15,51,19.50
2009,08,23,15,52,19.50
2009,08,23,15,53,19.60
2009,08,23,15,54,19.60
2009,08,23,15,55,19.60
2009,08,23,15,56,19.60
2009,08,23,15,57,19.60
2009,08,23,15,58,19.70
2009,08,23,15,59,19.90
2009,08,23,16,00,19.90
2009,08,23,16,01,19.80
2009,08,23,16,02,19.70
2009,08,23,16,03,19.60
2009,08,23,16,04,19.70
2009,08,23,16,05,19.80
2009,08,23,16,06,19.90
2009,08,23,16,07,19.80
2009,08,23,16,08,19.80
2009,08,23,16,09,19.80
2009,08,23,16,10,19.70
2009,08,23,16,11,19.60
2009,08,23,16,12,19.50
2009,08,23,16,13,19.50
2009,08,23,16,14,19.60
2009,08,23,16,15,19.60
2009,08,23,16,16,19.60
2009,08,23,16,17,19.60
2009,08,23,16,18,19.60
2009,08,23,16,19,19.50
2009,08,23,16,20,19.40
2009,08,23,16,21,19.30
2009,08,23,16,22,19.40
2009,08,23,16,23,19.40
2009,08,23,16,24,19.60
2009,08,23,16,25,19.60
2009,08,23,16,26,19.70
2009,08,23,16,27,19.60
2009,08,23,16,28,19.50
2009,08,23,16,29,19.40
2009,08,23,16,30,19.30
2009,08,23,16,31,19.30
2009,08,23,16,32,19.30
2009,08,23,16,33,19.40
2009,08,23,16,34,19.40
2009,08,23,16,35,19.40
2009,08,23,16,36,19.40
2009,08,23,16,37,19.30
2009,08,23,16,38,19.20
2009,08,23,16,39,19.10
2009,08,23,16,40,19.20
2009,08,23,16,41,19.20
2009,08,23,16,42,19.20
2009,08,23,16,43,19.20
2009,08,23,16,44,19.30
2009,08,23,16,45,19.40
2009,08,23,16,46,19.50
2009,08,23,16,47,19.50
2009,08,23,16,48,19.60
2009,08,23,16,49,19.50
2009,08,23,16,50,19.50
2009,08,23,16,51,19.50
2009,08,23,16,52,19.50
2009,08,23,16,53,19.40
2009,08,23,16,54,19.30
2009,08,23,16,55,19.20
2009,08,23,16,56,19.10
2009,08,23,16,57,19.10
2009,08,23,16,58,19.20
2009,08,23,16,59,19.30
2009,08,23,17,00,19.40
2009,08,23,17,01,19.40
2009,08,23,17,02,19.40
2009,08,23,17,03,19.50
2009,08,23,17,04,19.60
2009,08,23,17,05,19.60
2009,08,23,17,06,19.60
2009,08,23,17,07,19.50
2009,08,23,17,08,19.40
2009,08,23,17,09,19.30
2009,08,23,17,10,19.30
2009,08,23,17,11,19.30
2009,08,23,17,12,19.20
2009,08,23,17,13,19.10
2009,08,23,17,14,19.10
2009,08,23,17,15,19.10
2009,08,23,17,16,19.00
2009,08,23,17,17,19.10
2009,08,23,17,18,19.20
2009,08,23,17,19,19.20
2009,08,23,17,20,19.30